When you browse on this site, cookies collect data to enhance your experience and personalize the content and advertising you see.
Visit our Privacy Policy to learn more. By continuing to use the site, you agree to this use of cookies and data.
  • In Czech Republic
  • List of Countries
  • For 7 days
  • Water Temperature
  • Satellite Maps
  • Weather Map
  • Weather Widgets
  • user-avatar
    Login

    Hourly Weather London

    Today, 21 November, Wednesday

    Time Temperature Precipitation Wind Pressure Humidity
    00:00 +4°C° 0 mm 2 mps 752 mmHg 83%
    01:00 +3°C° 0.2 mm 2 mps 752 mmHg 83%
    02:00 +3°C° 0.2 mm 2 mps 752 mmHg 84%
    03:00 +2°C° 0.2 mm 3 mps 753 mmHg 84%
    04:00 +2°C° 0 mm 3 mps 753 mmHg 84%
    05:00 +2°C° 0 mm 3 mps 754 mmHg 84%
    06:00 +1°C° 0 mm 4 mps 754 mmHg 84%
    07:00 +1°C° 0.1 mm 4 mps 755 mmHg 83%
    08:00 +3°C° 0.1 mm 4 mps 756 mmHg 81%
    09:00 +3°C° 0.1 mm 5 mps 756 mmHg 80%
    10:00 +3°C° 0 mm 5 mps 757 mmHg 77%
    11:00 +5°C° 0 mm 5 mps 758 mmHg 73%
    12:00 +5°C° 0 mm 5 mps 758 mmHg 70%
    13:00 +5°C° 0 mm 4 mps 759 mmHg 71%
    14:00 +5°C° 0 mm 4 mps 759 mmHg 71%
    15:00 +5°C° 0 mm 3 mps 760 mmHg 72%
    16:00 +4°C° 0 mm 3 mps 760 mmHg 74%
    17:00 +4°C° 0 mm 3 mps 761 mmHg 77%
    18:00 +3°C° 0 mm 3 mps 761 mmHg 79%
    19:00 +4°C° 0 mm 2 mps 761 mmHg 80%
    20:00 +3°C° 0 mm 2 mps 762 mmHg 80%
    21:00 +3°C° 0 mm 2 mps 762 mmHg 81%
    22:00 +3°C° 0 mm 2 mps 762 mmHg 81%
    23:00 +3°C° 0 mm 2 mps 762 mmHg 81%

    Tomorrow, 22 November, Thursday

    Time Temperature Precipitation Wind Pressure Humidity
    00:00 +2°C° 0 mm 2 mps 762 mmHg 81%
    01:00 +2°C° 0 mm 2 mps 762 mmHg 83%
    02:00 +2°C° 0 mm 2 mps 762 mmHg 84%
    03:00 +2°C° 0 mm 2 mps 762 mmHg 85%
    04:00 +3°C° 0 mm 2 mps 761 mmHg 87%
    05:00 +3°C° 0 mm 2 mps 761 mmHg 88%
    06:00 +3°C° 0 mm 2 mps 761 mmHg 89%
    07:00 +4°C° 0 mm 2 mps 761 mmHg 89%
    08:00 +4°C° 0 mm 2 mps 761 mmHg 89%
    09:00 +5°C° 0 mm 2 mps 761 mmHg 88%
    10:00 +6°C° 0 mm 2 mps 761 mmHg 86%
    11:00 +6°C° 0 mm 2 mps 761 mmHg 83%
    12:00 +7°C° 0 mm 2 mps 760 mmHg 80%
    13:00 +7°C° 0 mm 2 mps 760 mmHg 81%
    14:00 +7°C° 0 mm 2 mps 760 mmHg 82%
    15:00 +7°C° 0 mm 2 mps 760 mmHg 83%
    16:00 +6°C° 0 mm 2 mps 760 mmHg 84%
    17:00 +5°C° 0 mm 2 mps 760 mmHg 86%
    18:00 +5°C° 0 mm 2 mps 760 mmHg 88%
    19:00 +5°C° 0.1 mm 2 mps 760 mmHg 88%
    20:00 +5°C° 0.1 mm 2 mps 760 mmHg 88%
    21:00 +5°C° 0.1 mm 2 mps 760 mmHg 89%
    22:00 +5°C° 0.1 mm 2 mps 760 mmHg 89%
    23:00 +5°C° 0.1 mm 2 mps 759 mmHg 90%

    Day after tomorrow, 23 November, Friday

    Time Temperature Precipitation Wind Pressure Humidity
    00:00 +6°C° 0.1 mm 2 mps 759 mmHg 91%
    01:00 +6°C° 0.1 mm 2 mps 759 mmHg 92%
    02:00 +6°C° 0.1 mm 2 mps 759 mmHg 93%
    03:00 +6°C° 0.1 mm 2 mps 759 mmHg 95%
    04:00 +6°C° 0.1 mm 2 mps 759 mmHg 95%
    05:00 +6°C° 0.1 mm 2 mps 759 mmHg 95%
    06:00 +7°C° 0.1 mm 2 mps 759 mmHg 95%
    07:00 +7°C° 0 mm 2 mps 759 mmHg 94%
    08:00 +7°C° 0 mm 2 mps 759 mmHg 93%
    09:00 +7°C° 0 mm 2 mps 759 mmHg 92%
    10:00 +8°C° 0 mm 2 mps 759 mmHg 88%
    11:00 +9°C° 0 mm 2 mps 758 mmHg 83%
    12:00 +10°C° 0 mm 3 mps 758 mmHg 79%
    13:00 +10°C° 0 mm 3 mps 758 mmHg 81%
    14:00 +9°C° 0 mm 3 mps 758 mmHg 82%
    15:00 +9°C° 0 mm 2 mps 757 mmHg 83%
    16:00 +8°C° 0 mm 3 mps 757 mmHg 85%
    17:00 +8°C° 0 mm 3 mps 757 mmHg 88%
    18:00 +7°C° 0 mm 3 mps 757 mmHg 90%
    19:00 +7°C° 0 mm 3 mps 757 mmHg 91%
    20:00 +7°C° 0 mm 3 mps 757 mmHg 92%
    21:00 +7°C° 0 mm 3 mps 758 mmHg 92%
    22:00 +7°C° 0 mm 3 mps 757 mmHg 93%
    23:00 +7°C° 0 mm 3 mps 757 mmHg 93%

    24 November, Saturday

    Time Temperature Precipitation Wind Pressure Humidity
    00:00 +7°C° 0 mm 2 mps 757 mmHg 93%
    01:00 +7°C° 0.3 mm 2 mps 757 mmHg 94%
    02:00 +7°C° 0.3 mm 2 mps 757 mmHg 94%
    03:00 +7°C° 0.3 mm 2 mps 757 mmHg 95%
    04:00 +7°C° 0.6 mm 2 mps 757 mmHg 95%
    05:00 +7°C° 0.6 mm 2 mps 757 mmHg 95%
    06:00 +7°C° 0.6 mm 2 mps 757 mmHg 95%
    07:00 +8°C° 0.3 mm 2 mps 757 mmHg 94%
    08:00 +8°C° 0.3 mm 2 mps 758 mmHg 94%
    09:00 +8°C° 0.3 mm 2 mps 758 mmHg 93%
    10:00 +9°C° 0.1 mm 2 mps 758 mmHg 89%
    11:00 +9°C° 0.1 mm 2 mps 758 mmHg 85%
    12:00 +10°C° 0.1 mm 3 mps 758 mmHg 81%
    13:00 +10°C° 0 mm 2 mps 758 mmHg 82%
    14:00 +10°C° 0 mm 2 mps 758 mmHg 83%
    15:00 +9°C° 0 mm 2 mps 758 mmHg 84%
    16:00 +9°C° 0 mm 2 mps 758 mmHg 85%
    17:00 +8°C° 0 mm 2 mps 758 mmHg 87%
    18:00 +8°C° 0 mm 2 mps 758 mmHg 88%
    19:00 +8°C° 0 mm 3 mps 758 mmHg 88%
    20:00 +8°C° 0 mm 3 mps 758 mmHg 89%
    21:00 +7°C° 0 mm 4 mps 758 mmHg 89%
    22:00 +6°C° 0 mm 4 mps 758 mmHg 89%
    23:00 +6°C° 0 mm 4 mps 758 mmHg 89%

    25 November, Sunday

    Time Temperature Precipitation Wind Pressure Humidity
    00:00 +6°C° 0 mm 4 mps 758 mmHg 89%
    01:00 +6°C° 0 mm 4 mps 757 mmHg 88%
    02:00 +6°C° 0 mm 5 mps 757 mmHg 88%
    03:00 +6°C° 0 mm 5 mps 757 mmHg 87%
    04:00 +6°C° 0.1 mm 5 mps 756 mmHg 87%
    05:00 +5°C° 0.1 mm 6 mps 756 mmHg 87%
    06:00 +5°C° 0.1 mm 6 mps 756 mmHg 86%
    07:00 +7°C° 0.1 mm 6 mps 756 mmHg 85%
    08:00 +7°C° 0.1 mm 6 mps 756 mmHg 84%
    09:00 +6°C° 0.1 mm 7 mps 756 mmHg 83%
    10:00 +6°C° 0.1 mm 7 mps 756 mmHg 82%
    11:00 +6°C° 0.1 mm 7 mps 756 mmHg 81%
    12:00 +6°C° 0.1 mm 7 mps 756 mmHg 80%
    13:00 +6°C° 0 mm 7 mps 756 mmHg 80%
    14:00 +6°C° 0 mm 7 mps 756 mmHg 80%
    15:00 +6°C° 0 mm 7 mps 755 mmHg 80%
    16:00 +6°C° 0 mm 7 mps 755 mmHg 80%
    17:00 +6°C° 0 mm 7 mps 755 mmHg 81%
    18:00 +5°C° 0 mm 7 mps 755 mmHg 82%
    19:00 +5°C° 0 mm 7 mps 755 mmHg 81%
    20:00 +5°C° 0 mm 8 mps 754 mmHg 81%
    21:00 +5°C° 0 mm 8 mps 754 mmHg 81%
    22:00 +5°C° 0 mm 8 mps 754 mmHg 81%
    23:00 +5°C° 0 mm 8 mps 753 mmHg 81%

    26 November, Monday

    Time Temperature Precipitation Wind Pressure Humidity
    00:00 +5°C° 0 mm 8 mps 753 mmHg 81%
    01:00 +5°C° 0 mm 8 mps 752 mmHg 81%
    02:00 +5°C° 0 mm 8 mps 752 mmHg 82%
    03:00 +5°C° 0 mm 7 mps 752 mmHg 82%
    04:00 +5°C° 0 mm 8 mps 751 mmHg 82%
    05:00 +5°C° 0 mm 8 mps 751 mmHg 82%
    06:00 +5°C° 0 mm 8 mps 750 mmHg 81%
    07:00 +5°C° 0 mm 8 mps 750 mmHg 81%
    08:00 +5°C° 0 mm 8 mps 750 mmHg 81%
    09:00 +5°C° 0 mm 8 mps 750 mmHg 81%
    10:00 +5°C° 0.1 mm 8 mps 750 mmHg 81%
    11:00 +5°C° 0.1 mm 8 mps 750 mmHg 82%
    12:00 +5°C° 0.1 mm 8 mps 749 mmHg 82%
    13:00 +5°C° 0.2 mm 7 mps 749 mmHg 82%
    14:00 +5°C° 0.2 mm 7 mps 749 mmHg 83%
    15:00 +5°C° 0.2 mm 7 mps 749 mmHg 83%
    16:00 +5°C° 0.2 mm 6 mps 749 mmHg 84%
    17:00 +5°C° 0.2 mm 6 mps 750 mmHg 85%
    18:00 +5°C° 0.2 mm 6 mps 750 mmHg 85%
    19:00 +6°C° 0.1 mm 5 mps 751 mmHg 86%
    20:00 +6°C° 0.1 mm 5 mps 751 mmHg 87%
    21:00 +6°C° 0.1 mm 4 mps 751 mmHg 88%
    22:00 +6°C° 0.1 mm 4 mps 752 mmHg 88%
    23:00 +6°C° 0.1 mm 4 mps 752 mmHg 89%
    Show more